Location: Acequia del Cap
(41.7000°N, 0.6167°E)
Time: 00:25:30
(UTC+00:00)

Cosmos 1745 Rocket - Pass Details

Date: 07 August 2020
Orbit: 952 x 999 km, 83.0° (Epoch: 22 September)

Event Time Altitude Azimuth Distance (km) Brightness Sun altitude
Rises 04:16:09 0° 351° (N) 3,711 7.3 -7.8°
Reaches altitude 10° 04:18:41 10° 350° (N) 2,753 6.6 -7.4°
Maximum altitude 04:24:59 77° 266° (W) 1,005 4.0 -6.4°
Drops below altitude 10° 04:31:10 10° 181° (S) 2,702 6.1 -5.4°
Sets 04:33:39 0° 179° (S) 3,638 6.7 -5.0°
